Regional Weather Roundup
Issued by NWS State College, PA

Current Version | Previous Version | Text Only | Print | Product List | Glossary On
Versions: 1 2 3 4 5 6 7 8 9 10 11 12 13 14 15 16 17 18 19 20 21 22 23 24 25 26 27 28 29 30 31 32 33 34 35 36 37 38 39 40 41 42 43 44 45 46 47 48 49 50
000
ASUS41 KCTP 231910
RWRCTP

REGIONAL WEATHER ROUNDUP
NATIONAL WEATHER SERVICE STATE COLLEGE PA
300 PM EDT THU OCT 23 2014

Note: "fair" indicates few or no clouds below 12,000 feet with no
significant weather and/or obstructions to visibility.

* = STATION THAT DOES NOT REPORT PRECIPITATION /E.G. RAIN...SNOW...ETC/
    THUNDER OR FOG.

PAZ002>004-007>009-013>016-020>023-029>032-232000-
WESTERN PENNSYLVANIA

CITY           SKY/WX    TMP DP  RH WIND       PRES   REMARKS
ERIE           SUNNY     57  43  59 NW7       30.12F
MEADVILLE      SUNNY     56  40  55 N9G17     30.10F
FRANKLIN*      SUNNY     57  37  47 NW7       30.08F
NEW CASTLE       N/A     59  43  55 NW12      30.10F
BEAVER COUNTY  PTSUNNY   57  43  58 NW8G18    30.09F
BUTLER*        MOSUNNY   61  43  51 NW7G21    30.08S
PITTSBURGH INT MOSUNNY   60  43  53 NW14      30.07F
PITTSBURGH     MOSUNNY   60  40  47 NW12G21   30.04F
INDIANA*       SUNNY     61  41  48 N12G21    30.04F
LATROBE        MOSUNNY  N/A N/A N/A N16       30.06F
WASHINGTON CO* PTSUNNY   59  45  58 W9G22     30.10S
$$

PAZ004>006-010>012-017>019-024>028-033>037-041-042-045-046-049>053-232000-
CENTRAL PENNSYLVANIA

CITY           SKY/WX    TMP DP  RH WIND       PRES   REMARKS
BRADFORD       SUNNY     57  38  48 N15G26    30.01F
DUBOIS         SUNNY     58  38  47 N20G29    29.99F
CLEARFIELD     PTSUNNY   62  39  42 NW23G29   29.96F
JOHNSTOWN      MOSUNNY   56  38  50 NW20G32   29.98F
ALTOONA        PTSUNNY   60  42  51 NW10G24   29.94S
STATE COLLEGE  CLOUDY    59  41  51 N16G31    29.92F
WILLIAMSPORT   CLOUDY    58  43  57 NW17      29.88F
SELINSGROVE    CLOUDY    59  44  57 N16G29    29.87S
FT INDIANTOWN  CLOUDY    58  47  68 N10G18    29.83S
CAPITAL CITY   PTSUNNY   62  44  51 N20G26    29.84S
HARRISBURG     PTSUNNY   61  44  53 NW23G30   29.83S
YORK           CLOUDY    60  45  57 NW17G23   29.84F
$$

PAZ038>040-043-044-047-048-054-055-060>062-067>071-232000-
EASTERN PENNSYLVANIA

CITY           SKY/WX    TMP DP  RH WIND       PRES   REMARKS
SCRANTON       RAIN      49  43  80 NE6G21    29.85R
MOUNT POCONO   LGT RAIN  44  40  85 NW17G25   29.79R
ALLENTOWN      CLOUDY    54  42  64 N16G25    29.79F
QUAKERTOWN*    CLOUDY    54  43  66 NW13G23   29.79F
READING        CLOUDY    55  44  66 NW18G24   29.81F
LANCASTER      CLOUDY    56  44  64 N12       29.82F
COATESVILLE    CLOUDY    54  45  71 NW15G21   29.81S
POTTSTOWN      CLOUDY    54  44  69 N13G23    29.80F
BLUE BELL      PTSUNNY   54  45  71 NW3       29.77S
DOYLESTOWN     CLOUDY    51  45  79 NW14G20   29.76S
WILLOW GROVE   NOT AVBL
NORTH PHILA    CLOUDY    55  43  63 NW21G30   29.77S
PHILADELPHIA   CLOUDY    55  44  66 NW25G35   29.77F
$$



USA.gov is the U.S. government's official web portal to all federal, state and local government web resources and services.